Time,TemperatureF,DewpointF,PressureIn,WindDirection,WindDirectionDegrees,WindSpeedMPH,WindSpeedGustMPH,Humidity,HourlyPrecipIn,Conditions,Clouds,dailyrainin,SoftwareType,DateUTC
2013-11-12 00:10:00,42.3,39.0,30.18,East,96,0.0,-999.0,88,-99.99,,,0.00,weatherlink.com 1.10,2013-11-12 06:10:00,
2013-11-12 00:25:00,42.0,39.0,30.18,East,96,0.0,-999.0,88,-99.99,,,0.00,weatherlink.com 1.10,2013-11-12 06:25:00,
2013-11-12 00:40:00,41.6,39.0,30.18,East,96,0.0,-999.0,89,-99.99,,,0.00,weatherlink.com 1.10,2013-11-12 06:40:00,
2013-11-12 00:55:00,41.3,38.0,30.18,East,96,0.0,-999.0,89,-99.99,,,0.00,weatherlink.com 1.10,2013-11-12 06:55:00,
2013-11-12 01:10:00,41.3,39.0,30.17,East,96,0.0,-999.0,90,-99.99,,,0.00,weatherlink.com 1.10,2013-11-12 07:10:00,
2013-11-12 01:25:00,41.5,39.0,30.17,East,96,0.0,-999.0,91,-99.99,,,0.00,weatherlink.com 1.10,2013-11-12 07:25:00,
2013-11-12 01:40:00,41.6,39.0,30.17,East,96,0.0,-999.0,91,-99.99,,,0.00,weatherlink.com 1.10,2013-11-12 07:40:00,
2013-11-12 01:55:00,41.9,40.0,30.17,East,96,0.0,-999.0,91,-99.99,,,0.00,weatherlink.com 1.10,2013-11-12 07:55:00,
2013-11-12 02:10:00,42.2,40.0,30.17,East,96,0.0,-999.0,91,-99.99,,,0.00,weatherlink.com 1.10,2013-11-12 08:10:00,
2013-11-12 02:25:00,42.4,40.0,30.17,East,96,0.0,-999.0,90,-99.99,,,0.00,weatherlink.com 1.10,2013-11-12 08:25:00,
2013-11-12 02:40:00,42.6,40.0,30.17,East,96,0.0,-999.0,91,-99.99,,,0.00,weatherlink.com 1.10,2013-11-12 08:40:00,
2013-11-12 02:55:00,42.9,40.0,30.17,East,96,0.0,-999.0,90,-99.99,,,0.00,weatherlink.com 1.10,2013-11-12 08:55:00,
2013-11-12 03:10:00,42.6,40.0,30.17,East,96,0.0,-999.0,89,-99.99,,,0.00,weatherlink.com 1.10,2013-11-12 09:10:00,
2013-11-12 03:25:00,42.4,39.0,30.17,East,96,0.0,-999.0,89,-99.99,,,0.00,weatherlink.com 1.10,2013-11-12 09:25:00,
2013-11-12 03:40:00,42.3,40.0,30.16,East,96,0.0,-999.0,90,-99.99,,,0.00,weatherlink.com 1.10,2013-11-12 09:40:00,
2013-11-12 03:55:00,42.2,40.0,30.17,East,96,0.0,-999.0,90,-99.99,,,0.00,weatherlink.com 1.10,2013-11-12 09:55:00,
2013-11-12 04:10:00,41.6,39.0,30.17,East,96,1.0,-999.0,91,-99.99,,,0.00,weatherlink.com 1.10,2013-11-12 10:10:00,
2013-11-12 04:25:00,41.5,39.0,30.17,East,96,0.0,-999.0,91,-99.99,,,0.00,weatherlink.com 1.10,2013-11-12 10:25:00,
2013-11-12 04:40:00,41.1,38.0,30.17,East,96,0.0,-999.0,90,-99.99,,,0.00,weatherlink.com 1.10,2013-11-12 10:40:00,
2013-11-12 04:55:00,40.5,38.0,30.18,East,96,0.0,-999.0,91,-99.99,,,0.00,weatherlink.com 1.10,2013-11-12 10:55:00,
2013-11-12 05:10:00,40.1,38.0,30.18,East,96,0.0,-999.0,91,-99.99,,,0.00,weatherlink.com 1.10,2013-11-12 11:10:00,
2013-11-12 05:25:00,39.7,37.0,30.18,East,96,0.0,-999.0,91,-99.99,,,0.00,weatherlink.com 1.10,2013-11-12 11:25:00,
2013-11-12 05:40:00,39.4,37.0,30.19,East,96,0.0,-999.0,92,-99.99,,,0.00,weatherlink.com 1.10,2013-11-12 11:40:00,
2013-11-12 05:55:00,39.0,37.0,30.19,East,96,0.0,-999.0,92,-99.99,,,0.00,weatherlink.com 1.10,2013-11-12 11:55:00,
2013-11-12 06:10:00,38.5,36.0,30.19,East,96,0.0,-999.0,92,-99.99,,,0.00,weatherlink.com 1.10,2013-11-12 12:10:00,
2013-11-12 06:26:00,38.2,36.0,30.20,East,96,4.0,-999.0,92,-99.99,,,0.00,weatherlink.com 1.10,2013-11-12 12:26:00,
2013-11-12 06:41:00,38.6,37.0,30.21,East,96,0.0,-999.0,92,-99.99,,,0.00,weatherlink.com 1.10,2013-11-12 12:41:00,
2013-11-12 06:56:00,39.3,37.0,30.21,East,96,1.0,-999.0,91,-99.99,,,0.00,weatherlink.com 1.10,2013-11-12 12:56:00,
2013-11-12 07:11:00,40.1,38.0,30.22,East,96,0.0,-999.0,91,-99.99,,,0.00,weatherlink.com 1.10,2013-11-12 13:11:00,
2013-11-12 07:26:00,42.3,38.0,30.23,NE,51,2.0,-999.0,85,-99.99,,,0.00,weatherlink.com 1.10,2013-11-12 13:26:00,
2013-11-12 07:41:00,46.5,39.0,30.23,East,84,5.0,-999.0,75,-99.99,,,0.00,weatherlink.com 1.10,2013-11-12 13:41:00,
2013-11-12 07:56:00,49.7,39.0,30.23,East,86,6.0,-999.0,66,-99.99,,,0.00,weatherlink.com 1.10,2013-11-12 13:56:00,
2013-11-12 08:11:00,52.5,40.0,30.24,ENE,78,2.0,-999.0,62,-99.99,,,0.00,weatherlink.com 1.10,2013-11-12 14:11:00,
2013-11-12 08:26:00,54.2,40.0,30.25,NNE,27,2.0,-999.0,60,-99.99,,,0.00,weatherlink.com 1.10,2013-11-12 14:26:00,
2013-11-12 08:56:00,54.9,41.0,30.26,NNE,33,5.0,-999.0,61,-99.99,,,0.00,weatherlink.com 1.10,2013-11-12 14:56:00,
2013-11-12 09:11:00,54.9,43.0,30.28,NNE,13,1.0,-999.0,64,-99.99,,,0.00,weatherlink.com 1.10,2013-11-12 15:11:00,
2013-11-12 09:26:00,53.8,44.0,30.29,NNW,338,4.0,-999.0,69,-99.99,,,0.00,weatherlink.com 1.10,2013-11-12 15:26:00,
2013-11-12 09:41:00,51.5,44.0,30.30,WNW,289,2.0,-999.0,75,-99.99,,,0.00,weatherlink.com 1.10,2013-11-12 15:41:00,
2013-11-12 09:56:00,49.9,43.0,30.30,NW,304,2.0,-999.0,78,-99.99,,,0.00,weatherlink.com 1.10,2013-11-12 15:56:00,
2013-11-12 10:11:00,49.1,43.0,30.31,NNE,13,1.0,-999.0,79,-99.99,,,0.00,weatherlink.com 1.10,2013-11-12 16:11:00,
2013-11-12 10:26:00,48.6,42.0,30.32,North,5,1.0,-999.0,79,-99.99,,,0.00,weatherlink.com 1.10,2013-11-12 16:26:00,
2013-11-12 10:41:00,47.8,42.0,30.32,NNW,333,4.0,-999.0,79,-99.99,,,0.00,weatherlink.com 1.10,2013-11-12 16:41:00,
2013-11-12 10:56:00,47.8,42.0,30.32,NNW,329,1.0,-999.0,80,-99.99,,,0.00,weatherlink.com 1.10,2013-11-12 16:56:00,
2013-11-12 11:11:00,47.7,40.0,30.32,WNW,298,3.0,-999.0,76,-99.99,,,0.00,weatherlink.com 1.10,2013-11-12 17:11:00,
2013-11-12 11:26:00,46.9,40.0,30.32,ENE,58,14.0,-999.0,76,-99.99,,,0.00,weatherlink.com 1.10,2013-11-12 17:26:00,
2013-11-12 11:41:00,46.7,39.0,30.32,North,11,4.0,-999.0,75,-99.99,,,0.00,weatherlink.com 1.10,2013-11-12 17:41:00,
2013-11-12 11:57:00,46.8,39.0,30.32,NNE,21,4.0,-999.0,73,-99.99,,,0.00,weatherlink.com 1.10,2013-11-12 17:57:00,
2013-11-12 12:11:00,46.6,38.0,30.32,NE,36,3.0,-999.0,71,-99.99,,,0.00,weatherlink.com 1.10,2013-11-12 18:11:00,
2013-11-12 12:26:00,47.2,37.0,30.31,NNW,328,3.0,-999.0,69,-99.99,,,0.00,weatherlink.com 1.10,2013-11-12 18:26:00,
2013-11-12 12:41:00,47.9,37.0,30.32,NNE,24,1.0,-999.0,67,-99.99,,,0.00,weatherlink.com 1.10,2013-11-12 18:41:00,
2013-11-12 12:56:00,47.6,36.0,30.32,NW,321,3.0,-999.0,65,-99.99,,,0.00,weatherlink.com 1.10,2013-11-12 18:56:00,
2013-11-12 13:11:00,47.1,35.0,30.33,NNW,338,4.0,-999.0,64,-99.99,,,0.00,weatherlink.com 1.10,2013-11-12 19:11:00,
2013-11-12 13:26:00,46.2,35.0,30.33,NNW,342,5.0,-999.0,66,-99.99,,,0.00,weatherlink.com 1.10,2013-11-12 19:26:00,
2013-11-12 13:41:00,44.9,34.0,30.34,NNW,329,2.0,-999.0,66,-99.99,,,0.00,weatherlink.com 1.10,2013-11-12 19:41:00,
2013-11-12 13:56:00,44.3,34.0,30.34,NNE,13,3.0,-999.0,66,-99.99,,,0.00,weatherlink.com 1.10,2013-11-12 19:56:00,
2013-11-12 14:12:00,44.5,32.0,30.35,NE,34,13.0,-999.0,63,-99.99,,,0.00,weatherlink.com 1.10,2013-11-12 20:12:00,
2013-11-12 14:26:00,44.7,31.0,30.35,ENE,65,6.0,-999.0,60,-99.99,,,0.00,weatherlink.com 1.10,2013-11-12 20:26:00,
2013-11-12 14:42:00,44.7,31.0,30.36,NW,322,4.0,-999.0,58,-99.99,,,0.00,weatherlink.com 1.10,2013-11-12 20:42:00,
2013-11-12 14:57:00,44.3,30.0,30.37,NNE,17,3.0,-999.0,57,-99.99,,,0.00,weatherlink.com 1.10,2013-11-12 20:57:00,
2013-11-12 15:12:00,44.1,27.0,30.37,WSW,250,7.0,-999.0,52,-99.99,,,0.00,weatherlink.com 1.10,2013-11-12 21:12:00,
2013-11-12 15:27:00,43.9,27.0,30.38,North,10,1.0,-999.0,52,-99.99,,,0.00,weatherlink.com 1.10,2013-11-12 21:27:00,
2013-11-12 15:42:00,43.8,26.0,30.38,NNE,30,8.0,-999.0,50,-99.99,,,0.00,weatherlink.com 1.10,2013-11-12 21:42:00,
2013-11-12 15:57:00,43.6,26.0,30.39,North,5,5.0,-999.0,51,-99.99,,,0.00,weatherlink.com 1.10,2013-11-12 21:57:00,
2013-11-12 16:12:00,42.8,24.0,30.40,North,350,7.0,-999.0,48,-99.99,,,0.00,weatherlink.com 1.10,2013-11-12 22:12:00,
2013-11-12 16:27:00,41.9,23.0,30.41,NW,319,2.0,-999.0,48,-99.99,,,0.00,weatherlink.com 1.10,2013-11-12 22:27:00,
2013-11-12 16:42:00,41.1,23.0,30.40,NNE,14,2.0,-999.0,48,-99.99,,,0.00,weatherlink.com 1.10,2013-11-12 22:42:00,
2013-11-12 16:57:00,40.5,23.0,30.42,North,349,3.0,-999.0,51,-99.99,,,0.00,weatherlink.com 1.10,2013-11-12 22:57:00,
2013-11-12 17:12:00,40.1,23.0,30.42,NNE,25,3.0,-999.0,50,-99.99,,,0.00,weatherlink.com 1.10,2013-11-12 23:12:00,
2013-11-12 17:27:00,39.4,23.0,30.43,NE,34,2.0,-999.0,52,-99.99,,,0.00,weatherlink.com 1.10,2013-11-12 23:27:00,
2013-11-12 17:42:00,38.8,23.0,30.44,NNE,30,4.0,-999.0,54,-99.99,,,0.00,weatherlink.com 1.10,2013-11-12 23:42:00,
2013-11-12 17:57:00,38.3,22.0,30.44,NNE,28,4.0,-999.0,53,-99.99,,,0.00,weatherlink.com 1.10,2013-11-12 23:57:00,
2013-11-12 18:12:00,38.3,20.0,30.45,NNE,28,8.0,-999.0,49,-99.99,,,0.00,weatherlink.com 1.10,2013-11-13 00:12:00,
2013-11-12 18:27:00,38.2,19.0,30.45,NNE,18,3.0,-999.0,47,-99.99,,,0.00,weatherlink.com 1.10,2013-11-13 00:27:00,
2013-11-12 18:42:00,38.2,18.0,30.46,North,9,2.0,-999.0,44,-99.99,,,0.00,weatherlink.com 1.10,2013-11-13 00:42:00,
2013-11-12 18:57:00,37.8,18.0,30.46,NNE,26,4.0,-999.0,44,-99.99,,,0.00,weatherlink.com 1.10,2013-11-13 00:57:00,
2013-11-12 19:12:00,37.7,17.0,30.47,NE,36,2.0,-999.0,43,-99.99,,,0.00,weatherlink.com 1.10,2013-11-13 01:12:00,
2013-11-12 19:27:00,37.1,17.0,30.48,NNW,331,1.0,-999.0,45,-99.99,,,0.00,weatherlink.com 1.10,2013-11-13 01:27:00,
2013-11-12 19:42:00,36.8,18.0,30.49,North,360,5.0,-999.0,46,-99.99,,,0.00,weatherlink.com 1.10,2013-11-13 01:42:00,
2013-11-12 19:57:00,36.5,17.0,30.50,NNW,342,2.0,-999.0,46,-99.99,,,0.00,weatherlink.com 1.10,2013-11-13 01:57:00,
2013-11-12 20:12:00,36.1,17.0,30.50,NNE,22,7.0,-999.0,47,-99.99,,,0.00,weatherlink.com 1.10,2013-11-13 02:12:00,
2013-11-12 20:27:00,35.9,17.0,30.50,WNW,300,5.0,-999.0,47,-99.99,,,0.00,weatherlink.com 1.10,2013-11-13 02:27:00,
2013-11-12 20:42:00,35.6,17.0,30.50,NNE,30,7.0,-999.0,46,-99.99,,,0.00,weatherlink.com 1.10,2013-11-13 02:42:00,
2013-11-12 20:58:00,35.3,16.0,30.51,NE,38,7.0,-999.0,46,-99.99,,,0.00,weatherlink.com 1.10,2013-11-13 02:58:00,
2013-11-12 21:13:00,34.9,16.0,30.51,NNE,27,6.0,-999.0,46,-99.99,,,0.00,weatherlink.com 1.10,2013-11-13 03:13:00,
2013-11-12 21:28:00,34.7,15.0,30.51,North,360,2.0,-999.0,45,-99.99,,,0.00,weatherlink.com 1.10,2013-11-13 03:28:00,
2013-11-12 21:43:00,34.7,15.0,30.51,NE,41,3.0,-999.0,45,-99.99,,,0.00,weatherlink.com 1.10,2013-11-13 03:43:00,
2013-11-12 21:58:00,34.4,15.0,30.52,NNE,22,4.0,-999.0,45,-99.99,,,0.00,weatherlink.com 1.10,2013-11-13 03:58:00,
2013-11-12 22:13:00,34.1,15.0,30.52,NNE,28,1.0,-999.0,46,-99.99,,,0.00,weatherlink.com 1.10,2013-11-13 04:13:00,
2013-11-12 22:28:00,33.9,15.0,30.52,ENE,57,10.0,-999.0,47,-99.99,,,0.00,weatherlink.com 1.10,2013-11-13 04:28:00,
2013-11-12 22:43:00,33.5,16.0,30.53,NNE,28,1.0,-999.0,48,-99.99,,,0.00,weatherlink.com 1.10,2013-11-13 04:43:00,
2013-11-12 22:58:00,33.3,16.0,30.53,North,11,6.0,-999.0,49,-99.99,,,0.00,weatherlink.com 1.10,2013-11-13 04:58:00,
2013-11-12 23:13:00,32.9,16.0,30.52,North,9,2.0,-999.0,50,-99.99,,,0.00,weatherlink.com 1.10,2013-11-13 05:13:00,
2013-11-12 23:28:00,32.6,16.0,30.52,NNE,32,4.0,-999.0,51,-99.99,,,0.00,weatherlink.com 1.10,2013-11-13 05:28:00,
2013-11-12 23:43:00,32.3,16.0,30.53,NE,42,0.0,-999.0,52,-99.99,,,0.00,weatherlink.com 1.10,2013-11-13 05:43:00,
2013-11-12 23:58:00,31.9,16.0,30.53,NE,46,4.0,-999.0,53,-99.99,,,0.00,weatherlink.com 1.10,2013-11-13 05:58:00,